Content
SEND FEEDBACK

Daily
Averages
Monthly
Summary
Canada

YELLOWKNIFE, NORTHWEST TERRITORIES


Home > North America > Canada > Northwest Territories
Elevation: 676 feet     Latitude: 62 28N     Longitude: 114 27W

WEATHER
 
SELECT A DAY
Number of Records: 194,971;   Date Range: 1/1/95 - 11/19/14
 
SHARE

PRINT THIS DATA

[ ← Previous Day ]
WEATHER ALMANAC - JANUARY 29, 2013
[ Next Day → ]
[ °C ]   °F
Weather ElementAverageHighLow
Temperature-33.7 °F-27.4 °F (1:00 am)-40 °F (8:00 pm)
Dewpoint-41 °F-34.6 °F (1:00 am)-49 °F (10:53 pm)
Humidity65.2 %74 % (9:00 pm)48 % (11:00 am)
Barometer30.54 in30.60 in (9:00 am)30.49 in (9:00 pm)
Wind Speed6.8 mph13.8 mph (1:00 am)
Weather ElementAverage
Visibility13.8 mi
Wind DirectionWSW (262.5 °)

Weather ElementTotal
Precipitation---
Heating Degree Days98.7 (Base 65)
Averaged from 32 records on January 29, 2013
WEATHER CONDITIONS BREAKOUT
WIND DIRECTION BREAKOUT
WEATHER BY HOUR - JANUARY 29, 2013
[ °C ]   °F
Local TimeTemperatureDewpointHumidityBarometerVisibilityWind DirectionWind SpeedGust SpeedPrecipitationEventsConditions
1:00 AM-27.4 °F-34.6 °F69 %30.53 in15.0 miNNW (340°)13.8 mphSnowLight Snow
2:00 AM-27.4 °F-34.6 °F69 %30.54 in15.0 miNNW (330°)13.8 mphSnowLight Snow
3:00 AM-29.2 °F-36.4 °F68 %30.56 in15.0 miNNW (330°)12.7 mphSnowLight Snow
4:00 AM-29.2 °F-36.4 °F68 %30.57 in15.0 miNW (320°)9.2 mphSnowLight Snow
5:00 AM-31.0 °F-39.0 °F49 %30.57 in15.0 miNW (320°)10.4 mphSnowLight Snow
5:00 AM-31.0 °F-38.2 °F68 %30.57 in15.0 miNW (320°)11.5 mphSnowLight Snow
6:00 AM-31.0 °F-38.2 °F68 %30.58 in15.0 miNW (320°)10.4 mphSnowLight Snow
6:43 AM-32.8 °F-40.0 °F68 %30.58 in15.0 miNW (320°)8.1 mphSnowLow Drifting Snow
7:00 AM-32.8 °F-40.0 °F68 %30.58 in15.0 miNW (320°)9.2 mphSnowLow Drifting Snow
8:00 AM-34.6 °F-41.8 °F68 %30.58 in15.0 miNW (310°)11.5 mphSnowLow Drifting Snow
9:00 AM-34.6 °F-41.8 °F68 %30.60 in15.0 miNW (320°)9.2 mphPartly Cloudy
10:00 AM-36.4 °F-43.6 °F67 %30.59 in15.0 miNW (320°)6.9 mphPartly Cloudy
11:00 AM-34.0 °F-42.0 °F48 %30.59 in15.0 miNNW (330°)8.1 mphPartly Cloudy
11:00 AM-34.6 °F-41.8 °F68 %30.59 in15.0 miNW (320°)6.9 mphPartly Cloudy
12:00 PM-32.8 °F-40.0 °F68 %30.57 in15.0 miNNW (330°)5.8 mphPartly Cloudy
1:00 PM-31.0 °F-38.2 °F68 %30.56 in15.0 miNW (320°)8.1 mphPartly Cloudy
2:00 PM-29.2 °F-36.4 °F68 %30.54 in15.0 miNW (320°)5.8 mphPartly Cloudy
3:00 PM-29.2 °F-36.4 °F68 %30.53 in15.0 miNNW (340°)4.6 mphPartly Cloudy
4:00 PM-29.2 °F-36.4 °F68 %30.53 in15.0 miWNW (290°)3.5 mphPartly Cloudy
5:00 PM-30.0 °F-37.0 °F51 %30.51 in15.0 miNorth (10°)2.3 mphScattered Clouds
5:00 PM-31.0 °F-38.2 °F68 %30.51 in15.0 miNNE (20°)3.5 mphPartly Cloudy
6:00 PM-32.8 °F-40.0 °F68 %30.51 in15.0 miNNE (20°)3.5 mphPartly Cloudy
7:00 PM-34.6 °F-41.8 °F68 %30.51 in15.0 miWest (260°)5.8 mphClear
8:00 PM-40.0 °F-47.2 °F67 %30.51 in15.0 miWNW (300°)3.5 mphClear
8:30 PM-38.2 °F-45.4 °F67 %30.50 in15.0 miWNW (290°)3.5 mphIce Crystals
9:00 PM-38.2 °F-43.6 °F74 %30.49 in15.0 miWNW (300°)2.3 mphIce Crystals
9:49 PM-38.2 °F-47.2 °F61 %30.50 in2.0 miNNW (330°)4.6 mphIce Crystals
10:00 PM-40.0 °F-47.2 °F67 %30.49 in2.0 miNNW (340°)3.5 mphIce Crystals
10:32 PM-38.2 °F-45.4 °F67 %30.49 in3.0 miNorth (360°)4.6 mphIce Crystals
10:53 PM-40.0 °F-49.0 °F60 %30.49 in15.0 miNorth (10°)3.5 mphFogPatches of Fog
11:00 PM-40.0 °F-47.0 °F48 %30.49 in15.0 miNorth (10°)3.5 mphSnowLight Snow
11:00 PM-40.0 °F-47.2 °F67 %30.49 in15.0 miNNE (30°)3.5 mphFogPatches of Fog
Hourly data recorded from CYZF, located miles away from Yellowknife, Northwest Territories







STORIES FROM OUR PARTNERS